| time (UTC) | temp F | wind direction | speed MPH | gust MPH | rain 1hr in | rain 24hr in | rain mn in | humidity % | barometer mb |
| 20260509123854 | 50 | 195 | 1.0 | 1.0 | 0.00 | 0.00 | 0.00 | 90 | 1007.3 |
| 20260509123351 | 50 | 202 | 1.0 | 2.0 | 0.00 | 0.00 | 0.00 | 90 | 1007.4 |
| 20260509122847 | 50 | 242 | 1.0 | 2.0 | 0.00 | 0.00 | 0.00 | 90 | 1007.3 |
| 20260509122344 | 50 | 223 | 3.0 | 5.0 | 0.00 | 0.00 | 0.00 | 90 | 1007.3 |
| 20260509121840 | 49 | 212 | 1.0 | 1.0 | 0.00 | 0.00 | 0.00 | 91 | 1007.6 |
| 20260509121338 | 49 | 240 | 0.0 | 1.0 | 0.00 | 0.00 | 0.00 | 91 | 1007.3 |
| 20260509120836 | 49 | 227 | 1.0 | 1.0 | 0.00 | 0.00 | 0.00 | 91 | 1007.3 |
| 20260509120333 | 49 | 179 | 1.0 | 1.0 | 0.00 | 0.00 | 0.00 | 91 | 1007.2 |
| 20260509115831 | 49 | 206 | 1.0 | 2.0 | 0.00 | 0.00 | 0.00 | 91 | 1007.3 |
| 20260509115328 | 49 | 219 | 1.0 | 1.0 | 0.00 | 0.00 | 0.00 | 91 | 1007.2 |
| 20260509114826 | 48 | 227 | 1.0 | 2.0 | 0.00 | 0.00 | 0.00 | 91 | 1007.0 |
| 20260509114324 | 48 | 246 | 3.0 | 5.0 | 0.00 | 0.00 | 0.00 | 92 | 1007.3 |
| 20260509113823 | 47 | 243 | 1.0 | 2.0 | 0.00 | 0.00 | 0.00 | 92 | 1007.2 |
| 20260509113320 | 47 | 222 | 1.0 | 2.0 | 0.00 | 0.00 | 0.00 | 92 | 1007.3 |
| 20260509112817 | 47 | 216 | 1.0 | 2.0 | 0.00 | 0.00 | 0.00 | 92 | 1007.3 |
| 20260509112314 | 46 | 218 | 1.0 | 2.0 | 0.00 | 0.00 | 0.00 | 92 | 1007.2 |
| 20260509111811 | 46 | 212 | 2.0 | 3.0 | 0.00 | 0.00 | 0.00 | 91 | 1007.2 |
| 20260509111308 | 46 | 231 | 1.0 | 1.0 | 0.00 | 0.00 | 0.00 | 91 | 1007.3 |
| 20260509110805 | 46 | 224 | 3.0 | 5.0 | 0.00 | 0.00 | 0.00 | 91 | 1007.4 |
| 20260509110301 | 46 | 235 | 4.0 | 7.0 | 0.00 | 0.00 | 0.00 | 91 | 1007.3 |
| 20260509105800 | 46 | 212 | 1.0 | 2.0 | 0.00 | 0.00 | 0.00 | 90 | 1007.3 |
| 20260509105257 | 45 | 253 | 0.0 | 1.0 | 0.00 | 0.00 | 0.00 | 90 | 1007.5 |
| 20260509104754 | 45 | 225 | 2.0 | 2.0 | 0.00 | 0.00 | 0.00 | 89 | 1007.4 |
| 20260509104250 | 45 | 240 | 2.0 | 2.0 | 0.00 | 0.00 | 0.00 | 89 | 1007.4 |
| 20260509103749 | 45 | 241 | 0.0 | 1.0 | 0.00 | 0.00 | 0.00 | 89 | 1007.4 |
| 20260509103246 | 45 | 216 | 1.0 | 2.0 | 0.00 | 0.00 | 0.00 | 89 | 1007.4 |
| 20260509102744 | 45 | 234 | 1.0 | 2.0 | 0.00 | 0.00 | 0.00 | 89 | 1007.7 |
| 20260509102241 | 45 | 234 | 0.0 | 0.0 | 0.00 | 0.00 | 0.00 | 88 | 1007.3 |
| 20260509101737 | 45 | 217 | 1.0 | 1.0 | 0.00 | 0.00 | 0.00 | 87 | 1007.6 |
| 20260509101233 | 45 | 222 | 1.0 | 1.0 | 0.00 | 0.00 | 0.00 | 87 | 1007.4 |
| 20260509100731 | 45 | 227 | 1.0 | 2.0 | 0.00 | 0.00 | 0.00 | 86 | 1007.5 |
| 20260509100228 | 45 | 216 | 1.0 | 2.0 | 0.00 | 0.00 | 0.00 | 86 | 1007.1 |
| 20260509095724 | 45 | 208 | 2.0 | 2.0 | 0.00 | 0.00 | 0.00 | 86 | 1007.2 |
| 20260509095222 | 45 | 227 | 1.0 | 1.0 | 0.00 | 0.00 | 0.00 | 86 | 1007.4 |
| 20260509094719 | 45 | 204 | 4.0 | 5.0 | 0.00 | 0.00 | 0.00 | 85 | 1007.3 |
| 20260509094215 | 45 | 222 | 3.0 | 3.0 | 0.00 | 0.00 | 0.00 | 85 | 1007.3 |
| 20260509093714 | 45 | 220 | 3.0 | 3.0 | 0.00 | 0.00 | 0.00 | 85 | 1007.3 |
| 20260509093211 | 45 | 214 | 3.0 | 5.0 | 0.00 | 0.00 | 0.00 | 84 | 1007.3 |
| 20260509092709 | 45 | 215 | 3.0 | 5.0 | 0.00 | 0.00 | 0.00 | 84 | 1007.3 |
| 20260509092207 | 45 | 221 | 4.0 | 5.0 | 0.00 | 0.00 | 0.00 | 83 | 1007.2 |
| 20260509091705 | 45 | 226 | 3.0 | 3.0 | 0.00 | 0.00 | 0.00 | 82 | 1007.2 |
| 20260509091200 | 45 | 212 | 3.0 | 3.0 | 0.00 | 0.00 | 0.00 | 82 | 1007.2 |
| 20260509090658 | 45 | 216 | 3.0 | 5.0 | 0.00 | 0.00 | 0.00 | 82 | 1007.5 |
| 20260509090155 | 45 | 224 | 3.0 | 5.0 | 0.00 | 0.00 | 0.00 | 81 | 1007.5 |
| 20260509085653 | 45 | 215 | 3.0 | 5.0 | 0.00 | 0.00 | 0.00 | 81 | 1007.5 |
| 20260509085149 | 45 | 216 | 1.0 | 2.0 | 0.00 | 0.00 | 0.00 | 80 | 1007.3 |
| 20260509084646 | 45 | 214 | 2.0 | 3.0 | 0.00 | 0.00 | 0.00 | 79 | 1007.5 |
| 20260509084137 | 45 | 226 | 3.0 | 3.0 | 0.00 | 0.00 | 0.00 | 77 | 1007.5 |
| 20260509083635 | 45 | 186 | 2.0 | 5.0 | 0.00 | 0.00 | 0.00 | 76 | 1007.8 |
| 20260509083131 | 44 | 210 | 4.0 | 5.0 | 0.00 | 0.00 | 0.00 | 74 | 1007.6 |
| 20260509082628 | 44 | 237 | 3.0 | 3.0 | 0.00 | 0.00 | 0.00 | 72 | 1007.6 |
| 20260509082125 | 45 | 220 | 3.0 | 3.0 | 0.00 | 0.00 | 0.00 | 72 | 1007.8 |
| 20260509081622 | 45 | 214 | 3.0 | 5.0 | 0.00 | 0.00 | 0.00 | 73 | 1007.6 |
| 20260509081119 | 45 | 230 | 3.0 | 5.0 | 0.00 | 0.00 | 0.00 | 73 | 1007.8 |
| 20260509080618 | 45 | 236 | 2.0 | 2.0 | 0.00 | 0.00 | 0.00 | 70 | 1008.0 |
| 20260509080115 | 45 | 212 | 4.0 | 5.0 | 0.00 | 0.00 | 0.00 | 70 | 1007.9 |
| 20260509075613 | 45 | 213 | 3.0 | 5.0 | 0.00 | 0.00 | 0.00 | 69 | 1007.8 |
| 20260509075110 | 45 | 206 | 3.0 | 3.0 | 0.00 | 0.00 | 0.00 | 68 | 1008.0 |
| 20260509074607 | 45 | 208 | 3.0 | 3.0 | 0.00 | 0.00 | 0.00 | 68 | 1007.9 |
| 20260509074103 | 45 | 213 | 3.0 | 5.0 | 0.00 | 0.00 | 0.00 | 66 | 1008.0 |
| 20260509073600 | 45 | 208 | 3.0 | 3.0 | 0.00 | 0.00 | 0.00 | 66 | 1008.0 |
| 20260509073056 | 45 | 205 | 2.0 | 3.0 | 0.00 | 0.00 | 0.00 | 66 | 1008.2 |
| 20260509072552 | 44 | 220 | 2.0 | 2.0 | 0.00 | 0.00 | 0.00 | 67 | 1008.0 |
| 20260509072044 | 44 | 220 | 1.0 | 2.0 | 0.00 | 0.00 | 0.00 | 68 | 1008.2 |
| 20260509071541 | 44 | 215 | 1.0 | 2.0 | 0.00 | 0.00 | 0.00 | 67 | 1008.0 |
| 20260509071039 | 44 | 247 | 0.0 | 1.0 | 0.00 | 0.00 | 0.00 | 65 | 1008.3 |
| 20260509070536 | 44 | 212 | 1.0 | 2.0 | 0.00 | 0.00 | 0.00 | 65 | 1008.3 |
| 20260509070032 | 44 | 218 | 1.0 | 1.0 | 0.00 | 0.00 | 0.00 | 66 | 1008.1 |
| 20260509065527 | 44 | 233 | 1.0 | 1.0 | 0.00 | 0.00 | 0.00 | 65 | 1008.3 |
| 20260509065024 | 44 | 248 | 0.0 | 0.0 | 0.00 | 0.00 | 0.00 | 66 | 1008.3 |
| 20260509064521 | 44 | 248 | 0.0 | 0.0 | 0.00 | 0.00 | 0.00 | 65 | 1008.5 |
| 20260509064019 | 45 | 231 | 2.0 | 2.0 | 0.00 | 0.00 | 0.00 | 63 | 1008.7 |
| 20260509063514 | 45 | 222 | 2.0 | 2.0 | 0.00 | 0.00 | 0.00 | 64 | 1008.6 |
| 20260509063012 | 45 | 213 | 2.0 | 2.0 | 0.00 | 0.00 | 0.00 | 63 | 1008.8 |
| 20260509062509 | 45 | 216 | 3.0 | 3.0 | 0.00 | 0.00 | 0.00 | 65 | 1008.7 |
| 20260509062007 | 45 | 217 | 3.0 | 3.0 | 0.00 | 0.00 | 0.00 | 63 | 1008.7 |
| 20260509061504 | 45 | 226 | 2.0 | 2.0 | 0.00 | 0.00 | 0.00 | 63 | 1008.8 |
| 20260509061001 | 45 | 219 | 3.0 | 3.0 | 0.00 | 0.00 | 0.00 | 63 | 1009.2 |
| 20260509060458 | 44 | 220 | 4.0 | 5.0 | 0.00 | 0.00 | 0.00 | 63 | 1009.2 |
| 20260509055953 | 44 | 226 | 3.0 | 3.0 | 0.00 | 0.00 | 0.00 | 64 | 1009.2 |
| 20260509055449 | 44 | 219 | 3.0 | 3.0 | 0.00 | 0.00 | 0.00 | 64 | 1009.2 |
| 20260509054946 | 44 | 220 | 3.0 | 3.0 | 0.00 | 0.00 | 0.00 | 64 | 1009.2 |
| 20260509054442 | 44 | 230 | 3.0 | 3.0 | 0.00 | 0.00 | 0.00 | 65 | 1009.4 |
| 20260509053940 | 44 | 220 | 3.0 | 3.0 | 0.00 | 0.00 | 0.00 | 65 | 1009.2 |
| 20260509053438 | 44 | 225 | 3.0 | 3.0 | 0.00 | 0.00 | 0.00 | 66 | 1009.4 |
| 20260509052935 | 44 | 215 | 5.0 | 6.0 | 0.00 | 0.00 | 0.00 | 65 | 1009.6 |
| 20260509052433 | 44 | 231 | 3.0 | 3.0 | 0.00 | 0.00 | 0.00 | 65 | 1009.6 |
| 20260509051931 | 44 | 220 | 4.0 | 5.0 | 0.00 | 0.00 | 0.00 | 64 | 1009.6 |
| 20260509051428 | 44 | 215 | 3.0 | 3.0 | 0.00 | 0.00 | 0.00 | 64 | 1009.6 |
| 20260509050925 | 43 | 226 | 3.0 | 3.0 | 0.00 | 0.00 | 0.00 | 66 | 1009.7 |
| 20260509050421 | 43 | 228 | 2.0 | 2.0 | 0.00 | 0.00 | 0.00 | 66 | 1009.9 |
| 20260509045918 | 43 | 224 | 2.0 | 2.0 | 0.00 | 0.00 | 0.00 | 65 | 1009.7 |
| 20260509045415 | 43 | 210 | 3.0 | 3.0 | 0.00 | 0.00 | 0.00 | 66 | 1009.4 |
| 20260509044912 | 43 | 212 | 3.0 | 3.0 | 0.00 | 0.00 | 0.00 | 65 | 1009.8 |
| 20260509044410 | 43 | 212 | 3.0 | 3.0 | 0.00 | 0.00 | 0.00 | 62 | 1010.0 |
| 20260509043907 | 44 | 211 | 3.0 | 3.0 | 0.00 | 0.00 | 0.00 | 63 | 1010.0 |
| 20260509043402 | 44 | 201 | 4.0 | 5.0 | 0.00 | 0.00 | 0.00 | 59 | 1010.1 |
| 20260509042858 | 45 | 224 | 2.0 | 2.0 | 0.00 | 0.00 | 0.00 | 57 | 1010.1 |
| 20260509042355 | 44 | 229 | 2.0 | 2.0 | 0.00 | 0.00 | 0.00 | 58 | 1010.0 |
| 20260509041851 | 45 | 235 | 2.0 | 2.0 | 0.00 | 0.00 | 0.00 | 57 | 1009.9 |
| 20260509041343 | 45 | 227 | 2.0 | 2.0 | 0.00 | 0.00 | 0.00 | 59 | 1009.9 |
| 20260509040841 | 44 | 233 | 2.0 | 2.0 | 0.00 | 0.00 | 0.00 | 58 | 1010.3 |
| 20260509040339 | 45 | 226 | 2.0 | 2.0 | 0.00 | 0.00 | 0.00 | 59 | 1010.1 |
| 20260509035835 | 45 | 224 | 3.0 | 3.0 | 0.00 | 0.11 | 0.11 | 56 | 1010.3 |
| 20260509035333 | 44 | 236 | 2.0 | 2.0 | 0.00 | 0.11 | 0.11 | 60 | 1010.1 |
| 20260509034828 | 45 | 230 | 3.0 | 3.0 | 0.00 | 0.11 | 0.11 | 58 | 1010.2 |
| 20260509034327 | 45 | 218 | 3.0 | 3.0 | 0.00 | 0.11 | 0.11 | 57 | 1010.3 |
| 20260509033823 | 45 | 224 | 4.0 | 5.0 | 0.00 | 0.11 | 0.11 | 54 | 1010.4 |
| 20260509033321 | 45 | 228 | 5.0 | 6.0 | 0.00 | 0.11 | 0.11 | 53 | 1010.5 |
| 20260509032817 | 44 | 224 | 3.0 | 3.0 | 0.00 | 0.11 | 0.11 | 56 | 1010.4 |
| 20260509032314 | 44 | 228 | 3.0 | 3.0 | 0.00 | 0.11 | 0.11 | 55 | 1010.3 |
| 20260509031812 | 43 | 222 | 2.0 | 2.0 | 0.00 | 0.11 | 0.11 | 58 | 1010.4 |
| 20260509031309 | 43 | 260 | 0.0 | 0.0 | 0.00 | 0.11 | 0.11 | 64 | 1010.3 |
| 20260509030807 | 43 | 260 | 0.0 | 0.0 | 0.00 | 0.11 | 0.11 | 62 | 1010.1 |
| 20260509030305 | 43 | 237 | 0.0 | 1.0 | 0.00 | 0.11 | 0.11 | 59 | 1010.2 |
| 20260509025801 | 43 | 234 | 1.0 | 1.0 | 0.00 | 0.11 | 0.11 | 63 | 1010.4 |
| 20260509025256 | 43 | 233 | 1.0 | 1.0 | 0.00 | 0.11 | 0.11 | 62 | 1010.5 |
| 20260509024752 | 44 | 235 | 1.0 | 1.0 | 0.00 | 0.11 | 0.11 | 63 | 1010.4 |
| 20260509024248 | 43 | 236 | 2.0 | 2.0 | 0.00 | 0.11 | 0.11 | 60 | 1010.5 |
| 20260509023746 | 43 | 239 | 1.0 | 1.0 | 0.00 | 0.11 | 0.11 | 63 | 1010.4 |
| 20260509023243 | 43 | 256 | 0.0 | 0.0 | 0.00 | 0.11 | 0.11 | 64 | 1010.5 |
| 20260509022739 | 43 | 248 | 0.0 | 0.0 | 0.00 | 0.11 | 0.11 | 62 | 1010.4 |
| 20260509022237 | 43 | 247 | 0.0 | 0.0 | 0.00 | 0.11 | 0.11 | 65 | 1010.4 |
| 20260509021733 | 42 | 242 | 0.0 | 0.0 | 0.00 | 0.11 | 0.11 | 65 | 1010.2 |
| 20260509021231 | 42 | 247 | 0.0 | 0.0 | 0.00 | 0.11 | 0.11 | 66 | 1010.3 |
| 20260509020729 | 41 | 246 | 0.0 | 0.0 | 0.00 | 0.11 | 0.11 | 67 | 1010.3 |
| 20260509020226 | 41 | 247 | 0.0 | 0.0 | 0.00 | 0.11 | 0.11 | 75 | 1010.4 |
| 20260509015724 | 41 | 250 | 0.0 | 0.0 | 0.00 | 0.11 | 0.11 | 70 | 1010.4 |
| 20260509015222 | 42 | 257 | 0.0 | 0.0 | 0.00 | 0.11 | 0.11 | 70 | 1010.2 |
| 20260509014718 | 41 | 248 | 0.0 | 0.0 | 0.00 | 0.11 | 0.11 | 68 | 1010.5 |
| 20260509014215 | 41 | 241 | 0.0 | 1.0 | 0.00 | 0.11 | 0.11 | 74 | 1010.3 |
| 20260509013712 | 42 | 254 | 0.0 | 0.0 | 0.00 | 0.11 | 0.11 | 74 | 1010.3 |
| 20260509013207 | 42 | 255 | 1.0 | 1.0 | 0.00 | 0.11 | 0.11 | 73 | 1010.3 |
| 20260509012704 | 42 | 260 | 1.0 | 1.0 | 0.00 | 0.11 | 0.11 | 72 | 1010.2 |
| 20260509012201 | 42 | 264 | 1.0 | 1.0 | 0.00 | 0.11 | 0.11 | 72 | 1010.3 |
| 20260509011658 | 43 | 258 | 0.0 | 1.0 | 0.00 | 0.11 | 0.11 | 73 | 1010.3 |
| 20260509011155 | 44 | 265 | 1.0 | 1.0 | 0.00 | 0.11 | 0.11 | 67 | 1010.1 |
| 20260509010653 | 43 | 268 | 1.0 | 1.0 | 0.00 | 0.11 | 0.11 | 68 | 1009.9 |
| 20260509010149 | 44 | 261 | 1.0 | 1.0 | 0.00 | 0.11 | 0.11 | 67 | 1010.3 |
| 20260509005647 | 43 | 264 | 1.0 | 1.0 | 0.00 | 0.11 | 0.11 | 65 | 1009.9 |
| 20260509005144 | 43 | 258 | 1.0 | 1.0 | 0.00 | 0.11 | 0.11 | 73 | 1010.2 |
| 20260509004639 | 44 | 270 | 0.0 | 1.0 | 0.00 | 0.11 | 0.11 | 70 | 1009.7 |
| 20260509004136 | 44 | 262 | 1.0 | 1.0 | 0.00 | 0.11 | 0.11 | 74 | 1009.6 |
| 20260509003635 | 45 | 260 | 1.0 | 1.0 | 0.00 | 0.11 | 0.11 | 67 | 1009.7 |
| 20260509003132 | 45 | 266 | 0.0 | 1.0 | 0.00 | 0.11 | 0.11 | 66 | 1009.7 |
| 20260509002629 | 45 | 253 | 0.0 | 1.0 | 0.00 | 0.11 | 0.11 | 64 | 1009.8 |
| 20260509002126 | 45 | 252 | 0.0 | 1.0 | 0.00 | 0.11 | 0.11 | 65 | 1009.6 |
| 20260509001624 | 46 | 253 | 1.0 | 1.0 | 0.00 | 0.11 | 0.11 | 69 | 1009.7 |
| 20260509001119 | 48 | 254 | 0.0 | 1.0 | 0.00 | 0.11 | 0.11 | 62 | 1009.6 |
| 20260509000618 | 49 | 261 | 0.0 | 0.0 | 0.00 | 0.11 | 0.11 | 48 | 1009.7 |
| 20260509000114 | 50 | 238 | 1.0 | 1.0 | 0.00 | 0.11 | 0.11 | 49 | 1009.7 |
| 20260508235612 | 50 | 258 | 0.0 | 1.0 | 0.00 | 0.11 | 0.11 | 45 | 1009.4 |
| 20260508235108 | 51 | 248 | 1.0 | 1.0 | 0.00 | 0.11 | 0.11 | 44 | 1009.8 |
| 20260508234606 | 51 | 282 | 2.0 | 2.0 | 0.00 | 0.11 | 0.11 | 45 | 1009.8 |
| 20260508234102 | 52 | 249 | 1.0 | 2.0 | 0.00 | 0.11 | 0.11 | 43 | 1009.6 |
| 20260508233601 | 52 | 235 | 2.0 | 2.0 | 0.00 | 0.11 | 0.11 | 41 | 1009.7 |
| 20260508233059 | 53 | 261 | 3.0 | 3.0 | 0.00 | 0.11 | 0.11 | 41 | 1009.6 |
| 20260508232555 | 53 | 231 | 1.0 | 2.0 | 0.00 | 0.11 | 0.11 | 45 | 1009.8 |
| 20260508232052 | 54 | 276 | 3.0 | 6.0 | 0.00 | 0.11 | 0.11 | 37 | 1009.6 |
| 20260508231550 | 54 | 274 | 2.0 | 2.0 | 0.00 | 0.11 | 0.11 | 39 | 1009.4 |
| 20260508231047 | 54 | 240 | 3.0 | 3.0 | 0.00 | 0.11 | 0.11 | 40 | 1009.3 |
| 20260508230543 | 54 | 253 | 3.0 | 3.0 | 0.00 | 0.11 | 0.11 | 38 | 1009.4 |
| 20260508230040 | 54 | 250 | 1.0 | 2.0 | 0.00 | 0.11 | 0.11 | 39 | 1009.4 |
| 20260508225537 | 54 | 265 | 5.0 | 7.0 | 0.00 | 0.11 | 0.11 | 35 | 1009.4 |
| 20260508225034 | 55 | 234 | 2.0 | 3.0 | 0.00 | 0.11 | 0.11 | 38 | 1009.4 |
| 20260508224532 | 55 | 270 | 3.0 | 3.0 | 0.00 | 0.11 | 0.11 | 35 | 1009.4 |
| 20260508224029 | 54 | 244 | 4.0 | 5.0 | 0.00 | 0.11 | 0.11 | 33 | 1009.3 |
| 20260508223527 | 55 | 254 | 4.0 | 5.0 | 0.00 | 0.11 | 0.11 | 34 | 1009.7 |
| 20260508223024 | 55 | 281 | 2.0 | 2.0 | 0.00 | 0.11 | 0.11 | 36 | 1009.3 |
| 20260508222521 | 55 | 244 | 5.0 | 6.0 | 0.00 | 0.11 | 0.11 | 34 | 1009.7 |
| 20260508222018 | 55 | 281 | 3.0 | 5.0 | 0.00 | 0.11 | 0.11 | 35 | 1009.3 |
| 20260508221514 | 55 | 231 | 2.0 | 2.0 | 0.00 | 0.11 | 0.11 | 32 | 1009.1 |
| 20260508221010 | 55 | 255 | 4.0 | 5.0 | 0.00 | 0.11 | 0.11 | 36 | 1009.4 |
| 20260508220507 | 56 | 245 | 3.0 | 5.0 | 0.00 | 0.11 | 0.11 | 37 | 1009.4 |
| 20260508220003 | 55 | 260 | 4.0 | 5.0 | 0.00 | 0.11 | 0.11 | 33 | 1009.3 |
| 20260508215500 | 55 | 234 | 4.0 | 5.0 | 0.00 | 0.11 | 0.11 | 35 | 1009.3 |
| 20260508214956 | 55 | 336 | 4.0 | 6.0 | 0.00 | 0.11 | 0.11 | 32 | 1009.2 |
| 20260508214454 | 55 | 302 | 2.0 | 2.0 | 0.00 | 0.11 | 0.11 | 36 | 1009.2 |
| 20260508213950 | 54 | 276 | 3.0 | 3.0 | 0.00 | 0.11 | 0.11 | 35 | 1009.4 |
| 20260508213448 | 55 | 325 | 5.0 | 6.0 | 0.00 | 0.11 | 0.11 | 36 | 1009.3 |
| 20260508212943 | 55 | 270 | 2.0 | 2.0 | 0.00 | 0.11 | 0.11 | 37 | 1009.1 |
| 20260508212440 | 55 | 244 | 4.0 | 6.0 | 0.00 | 0.11 | 0.11 | 36 | 1009.4 |
| 20260508211936 | 55 | 229 | 5.0 | 6.0 | 0.00 | 0.11 | 0.11 | 36 | 1009.4 |
| 20260508211431 | 55 | 285 | 3.0 | 3.0 | 0.00 | 0.11 | 0.11 | 36 | 1009.4 |
| 20260508210929 | 55 | 261 | 3.0 | 3.0 | 0.00 | 0.11 | 0.11 | 37 | 1009.6 |
| 20260508210426 | 55 | 212 | 4.0 | 6.0 | 0.00 | 0.11 | 0.11 | 37 | 1009.4 |
| 20260508205922 | 55 | 356 | 2.0 | 3.0 | 0.00 | 0.11 | 0.11 | 34 | 1009.6 |
| 20260508205419 | 55 | 278 | 1.0 | 1.0 | 0.00 | 0.11 | 0.11 | 33 | 1009.4 |
| 20260508204915 | 55 | 274 | 2.0 | 2.0 | 0.00 | 0.11 | 0.11 | 35 | 1009.4 |
| 20260508204413 | 55 | 300 | 4.0 | 6.0 | 0.00 | 0.11 | 0.11 | 37 | 1009.4 |
| 20260508203908 | 55 | 266 | 4.0 | 5.0 | 0.00 | 0.11 | 0.11 | 37 | 1009.4 |
| 20260508203405 | 57 | 304 | 4.0 | 6.0 | 0.00 | 0.11 | 0.11 | 34 | 1009.6 |
| 20260508202900 | 56 | 260 | 3.0 | 3.0 | 0.00 | 0.11 | 0.11 | 43 | 1009.7 |
| 20260508202358 | 56 | 242 | 2.0 | 2.0 | 0.00 | 0.11 | 0.11 | 40 | 1009.7 |
| 20260508201855 | 54 | 274 | 2.0 | 2.0 | 0.00 | 0.11 | 0.11 | 42 | 1009.9 |
| 20260508201351 | 55 | 254 | 3.0 | 3.0 | 0.00 | 0.11 | 0.11 | 47 | 1009.8 |
| 20260508200848 | 55 | 262 | 3.0 | 5.0 | 0.00 | 0.11 | 0.11 | 42 | 1009.9 |
| 20260508200345 | 54 | 244 | 1.0 | 1.0 | 0.00 | 0.11 | 0.11 | 45 | 1009.9 |
| 20260508195840 | 54 | 207 | 1.0 | 2.0 | 0.00 | 0.11 | 0.11 | 46 | 1010.2 |
| 20260508195337 | 53 | 8 | 5.0 | 6.0 | 0.00 | 0.11 | 0.11 | 44 | 1010.3 |
| 20260508194834 | 53 | 249 | 3.0 | 3.0 | 0.00 | 0.11 | 0.11 | 48 | 1010.2 |
| 20260508194331 | 54 | 286 | 6.0 | 7.0 | 0.00 | 0.11 | 0.11 | 46 | 1010.1 |
| 20260508193828 | 55 | 331 | 1.0 | 1.0 | 0.00 | 0.11 | 0.11 | 46 | 1010.3 |
| 20260508193324 | 55 | 279 | 2.0 | 2.0 | 0.00 | 0.11 | 0.11 | 48 | 1010.4 |
| 20260508192820 | 53 | 283 | 1.0 | 2.0 | 0.00 | 0.11 | 0.11 | 46 | 1010.6 |
| 20260508192317 | 53 | 282 | 3.0 | 5.0 | 0.00 | 0.11 | 0.11 | 48 | 1010.4 |
| 20260508191814 | 53 | 275 | 3.0 | 3.0 | 0.00 | 0.11 | 0.11 | 53 | 1010.6 |
| 20260508191312 | 52 | 238 | 2.0 | 3.0 | 0.00 | 0.11 | 0.11 | 51 | 1010.6 |
| 20260508190804 | 53 | 276 | 3.0 | 3.0 | 0.00 | 0.11 | 0.11 | 51 | 1010.5 |
| 20260508190259 | 53 | 234 | 4.0 | 5.0 | 0.00 | 0.11 | 0.11 | 53 | 1010.6 |
| 20260508185756 | 53 | 278 | 3.0 | 5.0 | 0.00 | 0.11 | 0.11 | 53 | 1011.0 |
| 20260508185254 | 53 | 249 | 3.0 | 3.0 | 0.00 | 0.11 | 0.11 | 53 | 1010.8 |
| 20260508184750 | 53 | 245 | 3.0 | 3.0 | 0.00 | 0.11 | 0.11 | 56 | 1010.7 |
| 20260508184248 | 53 | 305 | 5.0 | 7.0 | 0.00 | 0.11 | 0.11 | 56 | 1010.9 |
| 20260508183745 | 53 | 268 | 6.0 | 7.0 | 0.00 | 0.11 | 0.11 | 54 | 1010.9 |
| 20260508183241 | 53 | 256 | 2.0 | 3.0 | 0.00 | 0.11 | 0.11 | 56 | 1010.9 |
| 20260508182737 | 51 | 237 | 0.0 | 0.0 | 0.00 | 0.11 | 0.11 | 53 | 1010.9 |
| 20260508182234 | 50 | 219 | 3.0 | 3.0 | 0.00 | 0.11 | 0.11 | 58 | 1010.9 |
| 20260508181730 | 50 | 211 | 1.0 | 2.0 | 0.00 | 0.11 | 0.11 | 54 | 1010.8 |
| 20260508181227 | 51 | 305 | 5.0 | 5.0 | 0.00 | 0.11 | 0.11 | 52 | 1010.7 |
| 20260508180723 | 51 | 12 | 2.0 | 2.0 | 0.00 | 0.11 | 0.11 | 56 | 1011.1 |
| 20260508180220 | 51 | 353 | 5.0 | 6.0 | 0.00 | 0.11 | 0.11 | 55 | 1011.0 |
| 20260508175717 | 51 | 271 | 3.0 | 3.0 | 0.00 | 0.11 | 0.11 | 53 | 1011.0 |
| 20260508175214 | 51 | 292 | 1.0 | 1.0 | 0.00 | 0.11 | 0.11 | 53 | 1010.8 |
| 20260508174712 | 50 | 327 | 4.0 | 6.0 | 0.00 | 0.11 | 0.11 | 62 | 1011.0 |
| 20260508174208 | 50 | 254 | 2.0 | 2.0 | 0.00 | 0.11 | 0.11 | 56 | 1011.1 |
| 20260508173705 | 49 | 282 | 2.0 | 2.0 | 0.00 | 0.11 | 0.11 | 58 | 1011.2 |
| 20260508173201 | 50 | 249 | 1.0 | 1.0 | 0.00 | 0.11 | 0.11 | 56 | 1011.3 |
| 20260508172658 | 50 | 244 | 6.0 | 7.0 | 0.00 | 0.11 | 0.11 | 62 | 1011.2 |
| 20260508172155 | 49 | 324 | 2.0 | 3.0 | 0.00 | 0.11 | 0.11 | 55 | 1011.2 |
| 20260508171651 | 48 | 205 | 6.0 | 8.0 | 0.00 | 0.11 | 0.11 | 61 | 1011.1 |
| 20260508171147 | 48 | 281 | 3.0 | 5.0 | 0.00 | 0.11 | 0.11 | 63 | 1011.3 |
| 20260508170645 | 48 | 352 | 4.0 | 6.0 | 0.00 | 0.11 | 0.11 | 65 | 1011.2 |
| 20260508170142 | 48 | 243 | 4.0 | 5.0 | 0.00 | 0.11 | 0.11 | 66 | 1011.6 |
| 20260508165639 | 48 | 300 | 4.0 | 5.0 | 0.00 | 0.11 | 0.11 | 67 | 1011.4 |
| 20260508165136 | 48 | 236 | 4.0 | 5.0 | 0.00 | 0.11 | 0.11 | 65 | 1011.6 |
| 20260508164633 | 48 | 235 | 7.0 | 7.0 | 0.00 | 0.11 | 0.11 | 64 | 1011.6 |
| 20260508164129 | 47 | 206 | 3.0 | 6.0 | 0.00 | 0.11 | 0.11 | 69 | 1011.7 |
| 20260508163627 | 46 | 251 | 5.0 | 7.0 | 0.00 | 0.11 | 0.11 | 69 | 1011.6 |
| 20260508163124 | 47 | 251 | 3.0 | 3.0 | 0.00 | 0.11 | 0.11 | 68 | 1011.7 |
| 20260508162620 | 47 | 306 | 4.0 | 6.0 | 0.00 | 0.11 | 0.11 | 67 | 1011.5 |
| 20260508162118 | 47 | 291 | 5.0 | 6.0 | 0.00 | 0.11 | 0.11 | 72 | 1011.7 |
| 20260508161614 | 46 | 263 | 5.0 | 6.0 | 0.00 | 0.11 | 0.11 | 78 | 1011.4 |
| 20260508161112 | 45 | 358 | 3.0 | 5.0 | 0.00 | 0.11 | 0.11 | 78 | 1011.7 |
| 20260508160610 | 45 | 351 | 2.0 | 2.0 | 0.00 | 0.11 | 0.11 | 78 | 1011.8 |
| 20260508160107 | 45 | 242 | 4.0 | 6.0 | 0.00 | 0.11 | 0.11 | 77 | 1012.1 |
| 20260508155604 | 46 | 281 | 7.0 | 9.0 | 0.00 | 0.11 | 0.11 | 74 | 1011.9 |
| 20260508155101 | 44 | 250 | 2.0 | 3.0 | 0.00 | 0.11 | 0.11 | 82 | 1012.0 |
| 20260508154558 | 45 | 281 | 3.0 | 5.0 | 0.00 | 0.11 | 0.11 | 82 | 1011.9 |
| 20260508154055 | 44 | 230 | 4.0 | 6.0 | 0.00 | 0.11 | 0.11 | 82 | 1011.9 |
| 20260508153552 | 44 | 256 | 5.0 | 6.0 | 0.00 | 0.11 | 0.11 | 82 | 1012.0 |
| 20260508153048 | 43 | 261 | 4.0 | 5.0 | 0.00 | 0.11 | 0.11 | 83 | 1011.7 |
| 20260508152546 | 44 | 234 | 1.0 | 2.0 | 0.00 | 0.11 | 0.11 | 82 | 1012.0 |
| 20260508152040 | 43 | 229 | 3.0 | 3.0 | 0.00 | 0.11 | 0.11 | 83 | 1011.7 |
| 20260508151537 | 42 | 226 | 5.0 | 6.0 | 0.00 | 0.11 | 0.11 | 86 | 1011.7 |
| 20260508151034 | 42 | 291 | 1.0 | 2.0 | 0.00 | 0.11 | 0.11 | 86 | 1012.0 |
| 20260508150532 | 42 | 235 | 1.0 | 1.0 | 0.00 | 0.11 | 0.11 | 84 | 1012.1 |
| 20260508150027 | 42 | 245 | 3.0 | 3.0 | 0.00 | 0.11 | 0.11 | 84 | 1011.9 |
| 20260508145524 | 42 | 244 | 4.0 | 5.0 | 0.00 | 0.11 | 0.11 | 85 | 1011.8 |
| 20260508145020 | 42 | 251 | 3.0 | 3.0 | 0.00 | 0.11 | 0.11 | 84 | 1012.0 |
| 20260508144518 | 42 | 263 | 3.0 | 3.0 | 0.00 | 0.11 | 0.11 | 86 | 1011.7 |
| 20260508144015 | 41 | 253 | 4.0 | 5.0 | 0.00 | 0.11 | 0.11 | 88 | 1011.9 |
| 20260508143513 | 40 | 259 | 2.0 | 2.0 | 0.00 | 0.11 | 0.11 | 90 | 1011.8 |
| 20260508143009 | 40 | 258 | 2.0 | 3.0 | 0.00 | 0.11 | 0.11 | 90 | 1011.9 |
| 20260508142506 | 41 | 283 | 1.0 | 2.0 | 0.00 | 0.11 | 0.11 | 93 | 1011.9 |
| 20260508142003 | 39 | 256 | 1.0 | 1.0 | 0.00 | 0.11 | 0.11 | 94 | 1012.0 |
| 20260508141459 | 39 | 335 | 2.0 | 2.0 | 0.00 | 0.11 | 0.11 | 95 | 1012.0 |
| 20260508140957 | 39 | 285 | 0.0 | 1.0 | 0.00 | 0.11 | 0.11 | 96 | 1011.7 |
| 20260508140454 | 39 | 256 | 0.0 | 0.0 | 0.00 | 0.11 | 0.11 | 95 | 1011.9 |
| 20260508135949 | 39 | 216 | 2.0 | 2.0 | 0.00 | 0.11 | 0.11 | 96 | 1011.9 |
| 20260508135446 | 39 | 236 | 1.0 | 2.0 | 0.00 | 0.11 | 0.11 | 96 | 1011.6 |
| 20260508134943 | 39 | 226 | 1.0 | 2.0 | 0.00 | 0.11 | 0.11 | 96 | 1011.5 |
| 20260508134439 | 39 | 240 | 1.0 | 1.0 | 0.00 | 0.11 | 0.11 | 97 | 1011.4 |
| 20260508133936 | 39 | 210 | 4.0 | 5.0 | 0.00 | 0.11 | 0.11 | 96 | 1011.4 |
| 20260508133434 | 38 | 208 | 2.0 | 3.0 | 0.00 | 0.11 | 0.11 | 96 | 1011.4 |
| 20260508132930 | 39 | 190 | 3.0 | 5.0 | 0.00 | 0.11 | 0.11 | 97 | 1011.5 |
| 20260508132428 | 38 | 260 | 0.0 | 0.0 | 0.00 | 0.11 | 0.11 | 97 | 1011.6 |
| 20260508131925 | 37 | 251 | 0.0 | 0.0 | 0.00 | 0.11 | 0.11 | 97 | 1011.6 |
| 20260508131420 | 37 | 225 | 1.0 | 2.0 | 0.00 | 0.11 | 0.11 | 97 | 1011.5 |
| 20260508130917 | 37 | 235 | 2.0 | 2.0 | 0.00 | 0.11 | 0.11 | 96 | 1011.7 |
| 20260508130414 | 37 | 263 | 1.0 | 1.0 | 0.00 | 0.11 | 0.11 | 96 | 1011.6 |
| 20260508125910 | 37 | 246 | 2.0 | 2.0 | 0.05 | 0.11 | 0.11 | 96 | 1011.7 |
| 20260508125406 | 36 | 270 | 2.0 | 2.0 | 0.05 | 0.11 | 0.11 | 96 | 1011.8 |
| 20260508124904 | 37 | 261 | 2.0 | 2.0 | 0.07 | 0.10 | 0.10 | 95 | 1011.8 |
| 20260508124401 | 37 | 327 | 3.0 | 5.0 | 0.12 | 0.10 | 0.10 | 95 | 1012.0 |